Flag for Israel Weather past 2 weeks in Eilat, Israel

Now
90 °F

Sunny.


Feels Like: 86 °F
Forecast: 69 / 87 °F
Wind: 10 mph from Northeast

Location: Eilat

Current Time: Oct 24, 2014 at 3:41:03 PM

Latest Report: Oct 24, 2014 at 2:50 PM


Visibility: 10 mi

Pressure: 29.95 "Hg

Humidity: 24%

Dew point: 48 °F

Location of EilatLocation

Historic Weather in Eilat — Graph

°F

Eilat temperature yesterday

Maximum temperature yesterday: 91 °F (at 3:50 PM)
Minimum temperature yesterday: 66 °F (at 5:50 AM)
Average temperature yesterday: 82 °F

Past Weeks' High & Low Weather Summary

 TemperatureHumidityPressure
High99 °F (Oct 10, 2:50 PM)69% (Oct 20, 8:50 AM)30.15 "Hg (Oct 20, 8:50 AM)
Low66 °F (Oct 21, 6:50 AM)14% (Oct 18, 5:50 PM)29.74 "Hg (Oct 19, 3:50 PM)
Average85 °F39%29.95 "Hg
* Reported Oct 9 2:50 PM — Oct 24 2:50 PM, Eilat, Weather by CustomWeather, © 2014

Note: Actual official high and low records may vary slightly from our data, if they occured in-between our weather recording intervals... More about our weather records

Advertising

Eilat weather history for previous 24 hours

 ConditionsComfort  
Time TempWeatherWind HumidityBarometerVisibility
2:50 PM
Oct 24
90 °FSunny.10 mph24%29.95 "Hg10 mi
1:50 PM90 °FSunny.12 mph22%29.98 "Hg10 mi
12:50 PM88 °FSunny.14 mph27%30.01 "Hg10 mi
11:50 AM84 °FSunny.13 mph37%30.04 "Hg10 mi
10:50 AM81 °FSunny.15 mph42%30.04 "Hg10 mi
9:50 AM77 °FSunny.15 mph47%30.07 "Hg10 mi
8:50 AM75 °FSunny.12 mph47%30.04 "Hg10 mi
7:50 AM70 °FSunny.7 mph53%30.04 "Hg10 mi
6:50 AM72 °FSunny.10 mph47%30.04 "Hg10 mi
5:50 AM72 °FClear.12 mph53%30.01 "Hg10 mi
9:50 PM
Oct 23
82 °FClear.10 mph25%30.01 "Hg10 mi
8:50 PM82 °FClear.7 mph26%30.01 "Hg10 mi
7:50 PM84 °FClear.9 mph23%29.98 "Hg10 mi
6:50 PM86 °FClear.12 mph24%29.98 "Hg10 mi
5:50 PM90 °FSunny.9 mph20%29.95 "Hg10 mi
4:50 PM91 °FSunny.13 mph21%29.95 "Hg10 mi
3:50 PM91 °FSunny.9 mph24%29.95 "Hg10 mi
Weather by CustomWeather, © 2014

See weather overviewHow to use our weather pages